Overview Statistics Trail Chart Weather Telemetry Raw packets
 

This is the latest recevied weather packets stored in our database for station/object DG3NAD-21. If no packets are shown the sender has not sent any weather packets the latest 10 day(s).

<< 1 2 3 4 5 6 >>
Time Temp. Humidity Pressure Rain* Wind** Luminosity Snow
1788575326 21.67° C 51% 1020.9 hPa - - - -
1788574426 22.22° C 51% 1021 hPa - - - -
1788573526 22.22° C 50% 1021.1 hPa - - - -
1788572626 22.22° C 50% 1021 hPa - - - -
1788571726 22.22° C 49% 1020.9 hPa - - - -
1788570826 22.78° C 47% 1020.9 hPa - - - -
1788569926 22.78° C 46% 1020.7 hPa - - - -
1788569025 23.33° C 44% 1020.4 hPa - - - -
1788568125 23.33° C 41% 1020.1 hPa - - - -
1788567262 23.89° C 41% 1020.1 hPa - - - -
1788566325 23.89° C 40% 1020 hPa - - - -
1788565425 23.89° C 40% 1019.8 hPa - - - -
1788564524 24.44° C 40% 1019.7 hPa - - - -
1788563624 24.44° C 40% 1019.5 hPa - - - -
1788562724 24.44° C 41% 1019.7 hPa - - - -
1788561824 25° C 41% 1019.6 hPa - - - -
1788560924 25° C 42% 1019.4 hPa - - - -
1788560024 25° C 42% 1019.6 hPa - - - -
1788559124 25° C 40% 1019.3 hPa - - - -
1788558224 25° C 41% 1018.8 hPa - - - -
1788557323 25.56° C 43% 1018.6 hPa - - - -
1788556423 26.11° C 44% 1018.1 hPa - - - -
1788555523 26.67° C 43% 1017.4 hPa - - - -
1788554623 26.67° C 43% 1016.6 hPa - - - -
1788553723 26.67° C 43% 1016.5 hPa - - - -

* Rain since midnight (hover to see other rain measurements)
** Current wind speed in m/s (hover to see current wind gust speed)